User: anonymous   Login
Location: Nag� el Ma?a??a
(24.0667°N, 32.8833°E)
Time: 18:05:08
(UTC+00:00)
Language:

Cosmos 1603 - Orbit

View from above orbital plane
View from above orbital plane
View from above satellite
View from above satellite

Ground track
Ground track

The orbit data is extracted from the following two-line orbital elements,

1 15333U 84106A   21339.91069184  .00000010  00000-0  29937-4 0  9995
2 15333  71.0278 273.2843 0021848 244.8633 115.0222 14.14132234918831
Epoch (UTC): 05 December 2021 21:51:23
Eccentricity: 0.0021848
inclination: 71.0278°
perigee height: 829 km
apogee height: 861 km
right ascension of ascending node: 273.2843°
argument of perigee: 244.8633°
revolutions per day: 14.14132234
mean anomaly at epoch: 115.0222°
orbit number at epoch: 91883

The dashed part of the orbit path shows where the satellite is in the earth's shadow,  

DLR